Location: Fort Worth, Tx
(32.7431°N, 97.3695°W)
Time: 01:49:44
(UTC-05:00)

BlueWalker 3 - Visible Passes

Search period start: 06 December 2022 00:00
Search period end: 16 December 2022 00:00
Orbit: 501 x 518 km, 53.2° (Epoch: 05 December)

Date Brightness Start Highest point End Pass type
(mag) Time Alt. Az. Time Alt. Az. Time Alt. Az.
08 Dec 4.5 20:25:42 10° NNW 20:26:08 12° NNW 20:26:08 12° NNW visible
09 Dec 3.6 20:07:15 10° NNW 20:09:06 23° N 20:09:06 23° N visible
10 Dec 2.4 19:48:48 10° NNW 19:52:21 40° NE 19:52:21 40° NE visible
11 Dec 2.3 19:30:20 10° NNW 19:34:04 43° NE 19:36:00 24° E visible
11 Dec 5.1 21:09:58 10° W 21:10:56 13° W 21:10:56 13° W visible
12 Dec 2.2 19:11:53 10° NNW 19:15:38 46° NE 19:19:22 10° ESE visible
12 Dec 4.8 20:51:44 10° W 20:53:57 15° WSW 20:55:15 13° SW visible
13 Dec 2.1 18:53:25 10° NNW 18:57:13 50° NE 19:00:59 10° ESE visible
13 Dec 5.0 20:33:31 10° W 20:35:29 14° WSW 20:37:28 10° SSW visible
14 Dec 5.2 20:15:20 10° W 20:17:01 12° WSW 20:18:42 10° SSW visible
15 Dec 5.4 19:57:15 10° WSW 19:58:33 11° WSW 19:59:50 10° SW visible
